Roanoke Regional Woodrum Field
KROA : now visible

Airfield :











YOU CAN JOIN US ON...

 
LOGIN :

Register | Disclaimer

   EN    FR    IT 

 









Legend :    VFR   Marginal VFR   IFR   Intensive IFR   Very Intensive IFR
Visi :
Ceiling :
>= 8 km
>= 3000ft
5 to 8 km
1000 to 3000 ft
1500m to 5 km
500 to 1000 ft
800 to 1500m
200 to 500 ft
< 800m
< 200 ft
Symbols :   Thunderstorms  Fog  Heavy snow  Heavy precipitations  Wind > 20 kt






- Airport Elevation : 1175 ft
- IATA code : ROA


KROA - Roanoke Regional Woodrum Field

CURRENT METAR :
  • 220154Z 33018G27KT 10SM FEW050 04/M07 A3006 RMK AO2 PK WND 31028/0113 SLP179 T00391067

EXPIRED METARs :
  • 220054Z 31016G24KT 10SM BKN055 OVC070 05/M06 A3003 RMK AO2 SLP169 T00501056
  • 212354Z 32017KT 10SM BKN065 06/M06 A3000 RMK AO2 SLP157 T00611056 10106 20061 52019

TAF KROA
Valid from the 22 at 00:00 until the 23 at 00:00 UTC


212323Z 2200/2224 31018G30KT P6SM BKN060
FM220700 30015KT P6SM SCT040
FM221400 29018G28KT P6SM SKC
KZDC FIR / North America



MET'MAP, your aeronautical weather chart ! - Copyright ORBIFLY December 2007 - Disclaimer

ORBIFLY MET'MAP TEAM :

Programming & Development : Alexandra Zaïnal
Concept & original design : Baudouin d'Aumeries
Assistance for programming : Marc-Olivier Méhu
Technical & hardware support : Manuel Goepfert

Contact : metmap@orbifly.com




SOURCES & CREDITS :

   NOAA       Earth
Advisory